owner,sensor,date,latitude,longitude,vertical_datum,wind_speed,wind_to_direction,wind_speed_of_gust,qcFlag 
TABS,ioos:station:wmo:42043:1,2006-07-07T21:30:00Z,28.9818,-94.9186,4.0,3.870930121,75.64027612,5.11,'11111222,11111222,11111222' 
TABS,ioos:station:wmo:42043:1,2006-07-07T22:00:00Z,28.9818,-94.9186,4.0,3.680339658,89.22115354,4.82,'11111222,11111222,11111222' 
TABS,ioos:station:wmo:42043:1,2006-07-07T22:30:00Z,28.9818,-94.9186,4.0,3.49,90.00042092,4.48,'11111222,11111222,11111222' 
TABS,ioos:station:wmo:42043:1,2006-07-07T23:00:00Z,28.9818,-94.9186,4.0,3.213098193,98.23137677,4.1,'11111222,11111222,11111222' 
TABS,ioos:station:wmo:42043:1,2006-07-07T23:30:00Z,28.9818,-94.9186,4.0,3.682458418,102.866725,4.66,'11111222,11111222,11111222' 
TABS,ioos:station:wmo:42043:1,2006-07-08T00:00:00Z,28.9818,-94.9186,4.0,3.704173322,113.3817502,4.56,'11111222,11111222,11111222' 
TABS,ioos:station:wmo:42043:1,2006-07-08T00:30:00Z,28.9818,-94.9186,4.0,3.152728977,113.5569012,3.99,'11111222,11111222,11111222' 
TABS,ioos:station:wmo:42043:1,2006-07-08T01:00:00Z,28.9818,-94.9186,4.0,2.980419434,111.6589868,3.77,'11111222,11111222,11111222' 
TABS,ioos:station:wmo:42043:1,2006-07-08T01:30:00Z,28.9818,-94.9186,4.0,2.612757164,111.5574498,3.28,'11111222,11111222,11111222' 
TABS,ioos:station:wmo:42043:1,2006-07-08T02:00:00Z,28.9818,-94.9186,4.0,2.59237343,112.2121997,3.47,'11111222,11111222,11111222' 
TABS,ioos:station:wmo:42043:1,2006-07-08T02:30:00Z,28.9818,-94.9186,4.0,2.188332699,108.1041416,2.72,'11111222,11111222,11111222' 
TABS,ioos:station:wmo:42043:1,2006-07-08T03:00:00Z,28.9818,-94.9186,4.0,1.394309865,120.6117377,2.04,'11111222,11111222,11111222' 
TABS,ioos:station:wmo:42043:1,2006-07-08T03:30:00Z,28.9818,-94.9186,4.0,1.265306287,107.0032338,1.89,'11111222,11111222,11111222' 
TABS,ioos:station:wmo:42043:1,2006-07-08T04:00:00Z,28.9818,-94.9186,4.0,1.879494613,118.6108137,2.6,'11111222,11111222,11111222' 
TABS,ioos:station:wmo:42043:1,2006-07-08T04:30:00Z,28.9818,-94.9186,4.0,2.20771375,109.5843689,2.84,'11111222,11111222,11111222' 
TABS,ioos:station:wmo:42043:1,2006-07-08T05:00:00Z,28.9818,-94.9186,4.0,1.896444041,115.6195772,2.6,'11111222,11111222,11111222' 
TABS,ioos:station:wmo:42043:1,2006-07-08T05:30:00Z,28.9818,-94.9186,4.0,1.801360597,92.22746268,2.34,'11111222,11111222,11111222' 
TABS,ioos:station:wmo:42043:1,2006-07-08T06:00:00Z,28.9818,-94.9186,4.0,1.543794028,79.9271248,2.19,'11111222,11111222,11111222' 
TABS,ioos:station:wmo:42043:1,2006-07-08T06:30:00Z,28.9818,-94.9186,4.0,1.681814496,80.76130775,2.21,'11111222,11111222,11111222' 
TABS,ioos:station:wmo:42043:1,2006-07-08T07:00:00Z,28.9818,-94.9186,4.0,1.573054354,110.8548302,2.22,'11111222,11111222,11111222' 
TABS,ioos:station:wmo:42043:1,2006-07-08T07:30:00Z,28.9818,-94.9186,4.0,1.269054766,102.2843476,2.1,'11111222,11111222,11111222' 
TABS,ioos:station:wmo:42043:1,2006-07-08T08:00:00Z,28.9818,-94.9186,4.0,1.245552086,122.5420984,1.83,'11111222,11111222,11111222' 
TABS,ioos:station:wmo:42043:1,2006-07-08T08:30:00Z,28.9818,-94.9186,4.0,0.945780101,160.2241801,1.51,'11111222,11111222,11111222' 
TABS,ioos:station:wmo:42043:1,2006-07-08T09:00:00Z,28.9818,-94.9186,4.0,1.060047169,117.5323333,1.62,'11111222,11111222,11111222' 
TABS,ioos:station:wmo:42043:1,2006-07-08T09:30:00Z,28.9818,-94.9186,4.0,1.365613415,132.9231458,2.05,'11111222,11111222,11111222' 
TABS,ioos:station:wmo:42043:1,2006-07-08T10:00:00Z,28.9818,-94.9186,4.0,0.741687266,86.13412695,1.7,'11111222,11111222,11111222' 
TABS,ioos:station:wmo:42043:1,2006-07-08T10:30:00Z,28.9818,-94.9186,4.0,0.970824392,124.5088632,1.68,'11111222,11111222,11111222' 
TABS,ioos:station:wmo:42043:1,2006-07-08T11:00:00Z,28.9818,-94.9186,4.0,0.930859818,140.6675881,1.37,'11111222,11111222,11111222' 
TABS,ioos:station:wmo:42043:1,2006-07-08T11:30:00Z,28.9818,-94.9186,4.0,1.2509996,140.8397943,2.12,'11111222,11111222,11111222' 
TABS,ioos:station:wmo:42043:1,2006-07-08T12:00:00Z,28.9818,-94.9186,4.0,1.01,168.5790509,1.96,'11111222,11111222,11111222' 
TABS,ioos:station:wmo:42043:1,2006-07-08T12:30:00Z,28.9818,-94.9186,4.0,0.425205833,131.1862498,1.11,'11111222,11111222,11111222' 
TABS,ioos:station:wmo:42043:1,2006-07-08T13:00:00Z,28.9818,-94.9186,4.0,2.193855054,146.527524,3.52,'11111222,11111222,11111222' 
TABS,ioos:station:wmo:42043:1,2006-07-08T13:30:00Z,28.9818,-94.9186,4.0,1.790111728,142.4902509,2.49,'11111222,11111222,11111222' 
TABS,ioos:station:wmo:42043:1,2006-07-08T14:00:00Z,28.9818,-94.9186,4.0,0.880056816,143.7814579,1.49,'11111222,11111222,11111222' 
TABS,ioos:station:wmo:42043:1,2006-07-08T14:30:00Z,28.9818,-94.9186,4.0,0.425440948,119.5781904,1.13,'11111222,11111222,11111222' 
TABS,ioos:station:wmo:42043:1,2006-07-08T15:00:00Z,28.9818,-94.9186,4.0,0.829276793,33.68977829,1.25,'11111222,11111222,11111222' 
TABS,ioos:station:wmo:42043:1,2006-07-08T15:30:00Z,28.9818,-94.9186,4.0,1.053043209,108.2632682,1.92,'11111222,11111222,11111222' 
TABS,ioos:station:wmo:42043:1,2006-07-08T16:00:00Z,28.9818,-94.9186,4.0,1.800249983,113.575072,2.58,'11111222,11111222,11111222' 
TABS,ioos:station:wmo:42043:1,2006-07-08T16:30:00Z,28.9818,-94.9186,4.0,1.620030864,133.2494656,2.43,'11111222,11111222,11111222' 
TABS,ioos:station:wmo:42043:1,2006-07-08T17:00:00Z,28.9818,-94.9186,4.0,1.549451516,113.5873963,2.38,'11111222,11111222,11111222' 
TABS,ioos:station:wmo:42043:1,2006-07-08T17:30:00Z,28.9818,-94.9186,4.0,1.240846485,139.2487603,2.23,'11111222,11111222,11111222' 
TABS,ioos:station:wmo:42043:1,2006-07-08T18:00:00Z,28.9818,-94.9186,4.0,1.622251522,161.676992,2.43,'11111222,11111222,11111222' 
TABS,ioos:station:wmo:42043:1,2006-07-08T18:30:00Z,28.9818,-94.9186,4.0,1.627820629,164.6833865,2.72,'11111222,11111222,11111222' 
TABS,ioos:station:wmo:42043:1,2006-07-08T19:00:00Z,28.9818,-94.9186,4.0,1.843827541,160.6808796,3.22,'11111222,11111222,11111222' 
TABS,ioos:station:wmo:42043:1,2006-07-08T19:30:00Z,28.9818,-94.9186,4.0,2.019727704,138.8143816,2.95,'11111222,11111222,11111222' 
TABS,ioos:station:wmo:42043:1,2006-07-08T20:00:00Z,28.9818,-94.9186,4.0,2.47008097,151.463867,3.71,'11111222,11111222,11111222' 
TABS,ioos:station:wmo:42043:1,2006-07-08T20:30:00Z,28.9818,-94.9186,4.0,3.185780909,137.7992077,4.02,'11111222,11111222,11111222' 
TABS,ioos:station:wmo:42043:1,2006-07-08T21:00:00Z,28.9818,-94.9186,4.0,3.177184288,151.4186022,4.07,'11111222,11111222,11111222' 
TABS,ioos:station:wmo:42043:1,2006-07-08T21:30:00Z,28.9818,-94.9186,4.0,3.01444854,142.1419856,4.24,'11111222,11111222,11111222' 
TABS,ioos:station:wmo:42043:1,2006-07-08T22:00:00Z,28.9818,-94.9186,4.0,1.862310393,144.1764976,2.87,'11111222,11111222,11111222' 
TABS,ioos:station:wmo:42043:1,2006-07-08T22:30:00Z,28.9818,-94.9186,4.0,2.87795066,121.6469767,3.94,'11111222,11111222,11111222' 
TABS,ioos:station:wmo:42043:1,2006-07-08T23:00:00Z,28.9818,-94.9186,4.0,2.973919972,137.9987758,4.3,'11111222,11111222,11111222' 
TABS,ioos:station:wmo:42043:1,2006-07-08T23:30:00Z,28.9818,-94.9186,4.0,3.199249912,137.5338687,3.98,'11111222,11111222,11111222' 
TABS,ioos:station:wmo:42043:1,2006-07-09T00:00:00Z,28.9818,-94.9186,4.0,2.660075187,143.5611852,3.64,'11111222,11111222,11111222' 
TABS,ioos:station:wmo:42043:1,2006-07-09T00:30:00Z,28.9818,-94.9186,4.0,3.293584673,138.3234284,4.59,'11111222,11111222,11111222' 
TABS,ioos:station:wmo:42043:1,2006-07-09T01:00:00Z,28.9818,-94.9186,4.0,4.200809446,134.0358336,5.2,'11111222,11111222,11111222' 
TABS,ioos:station:wmo:42043:1,2006-07-09T01:30:00Z,28.9818,-94.9186,4.0,4.822219406,127.4167939,5.93,'11111222,11111222,11111222' 
TABS,ioos:station:wmo:42043:1,2006-07-09T02:00:00Z,28.9818,-94.9186,4.0,4.356604182,136.1163235,5.37,'11111222,11111222,11111222' 
TABS,ioos:station:wmo:42043:1,2006-07-09T02:30:00Z,28.9818,-94.9186,4.0,4.208622102,152.7046045,5.46,'11111222,11111222,11111222' 
TABS,ioos:station:wmo:42043:1,2006-07-09T03:00:00Z,28.9818,-94.9186,4.0,4.219004622,158.2997245,5.46,'11111222,11111222,11111222' 
TABS,ioos:station:wmo:42043:1,2006-07-09T03:30:00Z,28.9818,-94.9186,4.0,4.731849533,162.7906932,5.77,'11111222,11111222,11111222' 
TABS,ioos:station:wmo:42043:1,2006-07-09T04:00:00Z,28.9818,-94.9186,4.0,4.833735615,165.9927483,6.17,'11111222,11111222,11111222' 
TABS,ioos:station:wmo:42043:1,2006-07-09T04:30:00Z,28.9818,-94.9186,4.0,5.297102982,165.570492,6.39,'11111222,11111222,11111222' 
TABS,ioos:station:wmo:42043:1,2006-07-09T05:00:00Z,28.9818,-94.9186,4.0,4.775458093,160.8064664,5.8,'11111222,11111222,11111222' 
TABS,ioos:station:wmo:42043:1,2006-07-09T05:30:00Z,28.9818,-94.9186,4.0,4.518849411,167.9940375,5.6,'11111222,11111222,11111222' 
TABS,ioos:station:wmo:42043:1,2006-07-09T06:00:00Z,28.9818,-94.9186,4.0,4.400090908,174.5228545,5.58,'11111222,11111222,11111222' 
TABS,ioos:station:wmo:42043:1,2006-07-09T06:30:00Z,28.9818,-94.9186,4.0,4.491603277,174.3784807,5.41,'11111222,11111222,11111222' 
TABS,ioos:station:wmo:42043:1,2006-07-09T07:00:00Z,28.9818,-94.9186,4.0,3.360372003,180.8527613,4.32,'11111222,11111222,11111222' 
TABS,ioos:station:wmo:42043:1,2006-07-09T07:30:00Z,28.9818,-94.9186,4.0,3.182656123,177.6592391,4.26,'11111222,11111222,11111222' 
TABS,ioos:station:wmo:42043:1,2006-07-09T08:00:00Z,28.9818,-94.9186,4.0,2.560312481,179.1050388,3.46,'11111222,11111222,11111222' 
TABS,ioos:station:wmo:42043:1,2006-07-09T08:30:00Z,28.9818,-94.9186,4.0,3.053604428,168.285525,3.83,'11111222,11111222,11111222' 
TABS,ioos:station:wmo:42043:1,2006-07-09T09:00:00Z,28.9818,-94.9186,4.0,2.359067612,198.2815089,3.37,'11111222,11111222,11111222' 
TABS,ioos:station:wmo:42043:1,2006-07-09T09:30:00Z,28.9818,-94.9186,4.0,2.401686907,182.1477909,3.65,'11111222,11111222,11111222' 
TABS,ioos:station:wmo:42043:1,2006-07-09T10:00:00Z,28.9818,-94.9186,4.0,2.072993005,168.3108686,3.0,'11111222,11111222,11111222' 
TABS,ioos:station:wmo:42043:1,2006-07-09T10:30:00Z,28.9818,-94.9186,4.0,1.811077028,173.6600335,2.48,'11111222,11111222,11111222' 
TABS,ioos:station:wmo:42043:1,2006-07-09T11:00:00Z,28.9818,-94.9186,4.0,1.123298714,214.1146036,1.91,'11111222,11111222,11111222' 
TABS,ioos:station:wmo:42043:1,2006-07-09T11:30:00Z,28.9818,-94.9186,4.0,1.32438665,218.2545414,1.92,'11111222,11111222,11111222' 
TABS,ioos:station:wmo:42043:1,2006-07-09T12:00:00Z,28.9818,-94.9186,4.0,1.112519663,215.1187222,1.82,'11111222,11111222,11111222' 
TABS,ioos:station:wmo:42043:1,2006-07-09T12:30:00Z,28.9818,-94.9186,4.0,1.161550688,182.9611397,2.03,'11111222,11111222,11111222' 
TABS,ioos:station:wmo:42043:1,2006-07-09T13:00:00Z,28.9818,-94.9186,4.0,2.123252222,148.481174,3.14,'11111222,11111222,11111222' 
TABS,ioos:station:wmo:42043:1,2006-07-09T13:30:00Z,28.9818,-94.9186,4.0,2.973096029,139.7752628,3.94,'11111222,11111222,11111222' 
TABS,ioos:station:wmo:42043:1,2006-07-09T14:00:00Z,28.9818,-94.9186,4.0,2.990200662,155.9210463,3.97,'11111222,11111222,11111222' 
TABS,ioos:station:wmo:42043:1,2006-07-09T14:30:00Z,28.9818,-94.9186,4.0,3.273438559,177.373811,4.16,'11111222,11111222,11111222' 
TABS,ioos:station:wmo:42043:1,2006-07-09T15:00:00Z,28.9818,-94.9186,4.0,3.251861006,163.0141075,4.5,'11111222,11111222,11111222' 
TABS,ioos:station:wmo:42043:1,2006-07-09T15:30:00Z,28.9818,-94.9186,4.0,4.73972573,189.8401038,6.19,'11111222,11111222,11111222' 
TABS,ioos:station:wmo:42043:1,2006-07-09T16:00:00Z,28.9818,-94.9186,4.0,3.365248876,185.4566717,4.22,'11111222,11111222,11111222' 
TABS,ioos:station:wmo:42043:1,2006-07-09T16:30:00Z,28.9818,-94.9186,4.0,2.954335797,176.8956918,3.86,'11111222,11111222,11111222' 
TABS,ioos:station:wmo:42043:1,2006-07-09T17:00:00Z,28.9818,-94.9186,4.0,3.087539473,188.943874,4.17,'11111222,11111222,11111222' 
TABS,ioos:station:wmo:42043:1,2006-07-09T17:30:00Z,28.9818,-94.9186,4.0,5.379042666,198.5361666,6.83,'11111222,11111222,11111222' 
TABS,ioos:station:wmo:42043:1,2006-07-09T18:00:00Z,28.9818,-94.9186,4.0,4.623905276,192.7440313,5.76,'11111222,11111222,11111222' 
TABS,ioos:station:wmo:42043:1,2006-07-09T18:30:00Z,28.9818,-94.9186,4.0,2.459857719,185.1313637,3.43,'11111222,11111222,11111222' 
TABS,ioos:station:wmo:42043:1,2006-07-09T19:00:00Z,28.9818,-94.9186,4.0,4.353435425,188.9865003,5.99,'11111222,11111222,11111222' 
TABS,ioos:station:wmo:42043:1,2006-07-09T19:30:00Z,28.9818,-94.9186,4.0,3.851298482,181.4880745,4.76,'11111222,11111222,11111222' 
TABS,ioos:station:wmo:42043:1,2006-07-09T20:00:00Z,28.9818,-94.9186,4.0,4.46060534,188.6389292,5.78,'11111222,11111222,11111222' 
TABS,ioos:station:wmo:42043:1,2006-07-09T20:30:00Z,28.9818,-94.9186,4.0,3.414103103,185.209821,4.55,'11111222,11111222,11111222' 
TABS,ioos:station:wmo:42043:1,2006-07-09T21:00:00Z,28.9818,-94.9186,4.0,4.780930872,194.9084336,6.36,'11111222,11111222,11111222' 
TABS,ioos:station:wmo:42043:1,2006-07-09T21:30:00Z,28.9818,-94.9186,4.0,5.151019317,192.4445355,6.75,'11111222,11111222,11111222' 
TABS,ioos:station:wmo:42043:1,2006-07-09T22:00:00Z,28.9818,-94.9186,4.0,4.577390086,193.0041788,5.67,'11111222,11111222,11111222' 
TABS,ioos:station:wmo:42043:1,2006-07-09T22:30:00Z,28.9818,-94.9186,4.0,4.085792457,188.5864281,5.03,'11111222,11111222,11111222' 
TABS,ioos:station:wmo:42043:1,2006-07-09T23:00:00Z,28.9818,-94.9186,4.0,4.425708983,189.1006929,5.53,'11111222,11111222,11111222' 
TABS,ioos:station:wmo:42043:1,2006-07-09T23:30:00Z,28.9818,-94.9186,4.0,4.923941511,194.8266558,6.59,'11111222,11111222,11111222' 
TABS,ioos:station:wmo:42043:1,2006-07-10T00:00:00Z,28.9818,-94.9186,4.0,4.947726751,194.0364211,6.48,'11111222,11111222,11111222' 
TABS,ioos:station:wmo:42043:1,2006-07-10T00:30:00Z,28.9818,-94.9186,4.0,4.491414031,184.0858177,5.75,'11111222,11111222,11111222' 
TABS,ioos:station:wmo:42043:1,2006-07-10T01:00:00Z,28.9818,-94.9186,4.0,4.111216365,178.6064308,5.44,'11111222,11111222,11111222' 
TABS,ioos:station:wmo:42043:1,2006-07-10T01:30:00Z,28.9818,-94.9186,4.0,4.885417075,177.3017978,5.98,'11111222,11111222,11111222' 
TABS,ioos:station:wmo:42043:1,2006-07-10T02:00:00Z,28.9818,-94.9186,4.0,4.683641745,185.75948,6.06,'11111222,11111222,11111222' 
TABS,ioos:station:wmo:42043:1,2006-07-10T02:30:00Z,28.9818,-94.9186,4.0,5.120712841,186.2786065,6.54,'11111222,11111222,11111222' 
TABS,ioos:station:wmo:42043:1,2006-07-10T03:00:00Z,28.9818,-94.9186,4.0,5.468235547,183.1451606,6.92,'11111222,11111222,11111222' 
TABS,ioos:station:wmo:42043:1,2006-07-10T03:30:00Z,28.9818,-94.9186,4.0,4.934906281,182.555319,6.34,'11111222,11111222,11111222' 
TABS,ioos:station:wmo:42043:1,2006-07-10T04:00:00Z,28.9818,-94.9186,4.0,5.78249946,181.6848908,7.05,'11111222,11111222,11111222' 
TABS,ioos:station:wmo:42043:1,2006-07-10T04:30:00Z,28.9818,-94.9186,4.0,6.157808052,182.8858413,8.09,'11111222,11111222,11111222' 
TABS,ioos:station:wmo:42043:1,2006-07-10T05:00:00Z,28.9818,-94.9186,4.0,5.552305827,181.6515194,7.28,'11111222,11111222,11111222' 
TABS,ioos:station:wmo:42043:1,2006-07-10T05:30:00Z,28.9818,-94.9186,4.0,5.800249995,188.9265975,7.11,'11111222,11111222,11111222' 
TABS,ioos:station:wmo:42043:1,2006-07-10T06:00:00Z,28.9818,-94.9186,4.0,6.405247848,186.8145474,7.68,'11111222,11111222,11111222' 
TABS,ioos:station:wmo:42043:1,2006-07-10T06:30:00Z,28.9818,-94.9186,4.0,6.238212885,182.9405809,7.73,'11111222,11111222,11111222' 
TABS,ioos:station:wmo:42043:1,2006-07-10T07:00:00Z,28.9818,-94.9186,4.0,6.477422327,182.7433445,8.16,'11111222,11111222,11111222' 
TABS,ioos:station:wmo:42043:1,2006-07-10T07:30:00Z,28.9818,-94.9186,4.0,6.625503754,182.3357475,8.31,'11111222,11111222,11111222' 
TABS,ioos:station:wmo:42043:1,2006-07-10T08:00:00Z,28.9818,-94.9186,4.0,6.552205735,181.4869392,8.07,'11111222,11111222,11111222' 
TABS,ioos:station:wmo:42043:1,2006-07-10T08:30:00Z,28.9818,-94.9186,4.0,6.725830804,182.3861489,8.38,'11111222,11111222,11111222' 
TABS,ioos:station:wmo:42043:1,2006-07-10T09:00:00Z,28.9818,-94.9186,4.0,6.014889858,191.2167099,7.79,'11111222,11111222,11111222' 
TABS,ioos:station:wmo:42043:1,2006-07-10T09:30:00Z,28.9818,-94.9186,4.0,6.663482573,186.5492867,8.26,'11111222,11111222,11111222' 
TABS,ioos:station:wmo:42043:1,2006-07-10T10:00:00Z,28.9818,-94.9186,4.0,6.485213952,182.2978773,7.94,'11111222,11111222,11111222' 
TABS,ioos:station:wmo:42043:1,2006-07-10T10:30:00Z,28.9818,-94.9186,4.0,6.250383988,191.7236016,7.75,'11111222,11111222,11111222' 
TABS,ioos:station:wmo:42043:1,2006-07-10T11:00:00Z,28.9818,-94.9186,4.0,6.347164721,193.9488466,7.42,'11111222,11111222,11111222' 
TABS,ioos:station:wmo:42043:1,2006-07-10T11:30:00Z,28.9818,-94.9186,4.0,6.242195127,192.6783256,7.78,'11111222,11111222,11111222' 
TABS,ioos:station:wmo:42043:1,2006-07-10T12:00:00Z,28.9818,-94.9186,4.0,5.631500688,188.4756175,7.13,'11111222,11111222,11111222' 
TABS,ioos:station:wmo:42043:1,2006-07-10T12:30:00Z,28.9818,-94.9186,4.0,5.602579763,181.7390086,7.16,'11111222,11111222,11111222' 
TABS,ioos:station:wmo:42043:1,2006-07-10T13:00:00Z,28.9818,-94.9186,4.0,6.043856385,214.3475321,7.62,'11111222,11111222,11111222' 
TABS,ioos:station:wmo:42043:1,2006-07-10T13:30:00Z,28.9818,-94.9186,4.0,4.41099762,187.818009,5.58,'11111222,11111222,11111222' 
TABS,ioos:station:wmo:42043:1,2006-07-10T14:00:00Z,28.9818,-94.9186,4.0,4.543181704,182.1446402,5.95,'11111222,11111222,11111222' 
TABS,ioos:station:wmo:42043:1,2006-07-10T14:30:00Z,28.9818,-94.9186,4.0,5.405450953,189.5844901,6.56,'11111222,11111222,11111222' 
TABS,ioos:station:wmo:42043:1,2006-07-10T15:00:00Z,28.9818,-94.9186,4.0,5.240229003,185.036243,6.38,'11111222,11111222,11111222' 
TABS,ioos:station:wmo:42043:1,2006-07-10T15:30:00Z,28.9818,-94.9186,4.0,4.520641547,183.9323073,6.06,'11111222,11111222,11111222' 
TABS,ioos:station:wmo:42043:1,2006-07-10T16:00:00Z,28.9818,-94.9186,4.0,4.795633431,187.9106419,6.43,'11111222,11111222,11111222' 
TABS,ioos:station:wmo:42043:1,2006-07-10T16:30:00Z,28.9818,-94.9186,4.0,4.185355421,186.3101522,5.45,'11111222,11111222,11111222' 
TABS,ioos:station:wmo:42043:1,2006-07-10T17:00:00Z,28.9818,-94.9186,4.0,4.610878441,181.1186385,5.99,'11111222,11111222,11111222' 
TABS,ioos:station:wmo:42043:1,2006-07-10T17:30:00Z,28.9818,-94.9186,4.0,5.088850558,176.6205346,6.62,'11111222,11111222,11111222' 
TABS,ioos:station:wmo:42043:1,2006-07-10T18:00:00Z,28.9818,-94.9186,4.0,5.52682549,169.2595824,6.74,'11111222,11111222,11111222' 
TABS,ioos:station:wmo:42043:1,2006-07-10T18:30:00Z,28.9818,-94.9186,4.0,5.486100619,184.3908955,6.99,'11111222,11111222,11111222' 
TABS,ioos:station:wmo:42043:1,2006-07-10T19:00:00Z,28.9818,-94.9186,4.0,4.773395018,177.839136,6.15,'11111222,11111222,11111222' 
TABS,ioos:station:wmo:42043:1,2006-07-10T19:30:00Z,28.9818,-94.9186,4.0,4.54528327,171.9057809,5.96,'11111222,11111222,11111222' 
TABS,ioos:station:wmo:42043:1,2006-07-10T20:00:00Z,28.9818,-94.9186,4.0,4.810259868,179.4046431,6.01,'11111222,11111222,11111222' 
TABS,ioos:station:wmo:42043:1,2006-07-10T20:30:00Z,28.9818,-94.9186,4.0,5.149339764,183.4516037,6.88,'11111222,11111222,11111222' 
TABS,ioos:station:wmo:42043:1,2006-07-10T21:00:00Z,28.9818,-94.9186,4.0,5.789127741,185.7501822,7.13,'11111222,11111222,11111222' 
TABS,ioos:station:wmo:42043:1,2006-07-10T21:30:00Z,28.9818,-94.9186,4.0,5.809044672,184.6409771,7.17,'11111222,11111222,11111222' 
TABS,ioos:station:wmo:42043:1,2006-07-10T22:00:00Z,28.9818,-94.9186,4.0,6.081611629,181.319285,8.12,'11111222,11111222,11111222' 
TABS,ioos:station:wmo:42043:1,2006-07-10T22:30:00Z,28.9818,-94.9186,4.0,6.349338548,172.8528253,8.05,'11111222,11111222,11111222' 
TABS,ioos:station:wmo:42043:1,2006-07-10T23:00:00Z,28.9818,-94.9186,4.0,6.548358573,175.7088859,8.27,'11111222,11111222,11111222' 
TABS,ioos:station:wmo:42043:1,2006-07-10T23:30:00Z,28.9818,-94.9186,4.0,6.004539949,173.0172365,7.91,'11111222,11111222,11111222' 
TABS,ioos:station:wmo:42043:1,2006-07-11T00:00:00Z,28.9818,-94.9186,4.0,6.011497318,169.4566931,7.47,'11111222,11111222,11111222' 
TABS,ioos:station:wmo:42043:1,2006-07-11T00:30:00Z,28.9818,-94.9186,4.0,5.701657654,173.9596594,7.52,'11111222,11111222,11111222' 
TABS,ioos:station:wmo:42043:1,2006-07-11T01:00:00Z,28.9818,-94.9186,4.0,5.565294242,171.2149323,7.08,'11111222,11111222,11111222' 
TABS,ioos:station:wmo:42043:1,2006-07-11T01:30:00Z,28.9818,-94.9186,4.0,5.728149789,173.3838855,7.69,'11111222,11111222,11111222' 
TABS,ioos:station:wmo:42043:1,2006-07-11T02:00:00Z,28.9818,-94.9186,4.0,5.839768831,167.4395065,7.48,'11111222,11111222,11111222' 
TABS,ioos:station:wmo:42043:1,2006-07-11T02:30:00Z,28.9818,-94.9186,4.0,5.940791193,167.0634546,7.93,'11111222,11111222,11111222' 
TABS,ioos:station:wmo:42043:1,2006-07-11T03:00:00Z,28.9818,-94.9186,4.0,6.404100249,162.2726225,8.31,'11111222,11111222,11111222' 
TABS,ioos:station:wmo:42043:1,2006-07-11T03:30:00Z,28.9818,-94.9186,4.0,7.140203078,158.645883,9.34,'11111222,11111222,11111222' 
TABS,ioos:station:wmo:42043:1,2006-07-11T04:00:00Z,28.9818,-94.9186,4.0,7.271897964,165.1804858,9.2,'11111222,11111222,11111222' 
TABS,ioos:station:wmo:42043:1,2006-07-11T04:30:00Z,28.9818,-94.9186,4.0,6.956500557,166.7031286,8.52,'11111222,11111222,11111222' 
TABS,ioos:station:wmo:42043:1,2006-07-11T05:00:00Z,28.9818,-94.9186,4.0,6.874743632,176.2471268,8.62,'11111222,11111222,11111222' 
TABS,ioos:station:wmo:42043:1,2006-07-11T05:30:00Z,28.9818,-94.9186,4.0,6.586387477,177.4766555,8.12,'11111222,11111222,11111222' 
TABS,ioos:station:wmo:42043:1,2006-07-11T06:00:00Z,28.9818,-94.9186,4.0,6.632442989,178.4450546,8.24,'11111222,11111222,11111222' 
TABS,ioos:station:wmo:42043:1,2006-07-11T06:30:00Z,28.9818,-94.9186,4.0,6.761516102,172.2655938,8.63,'11111222,11111222,11111222' 
TABS,ioos:station:wmo:42043:1,2006-07-11T07:00:00Z,28.9818,-94.9186,4.0,6.670719601,167.7975013,7.96,'11111222,11111222,11111222' 
TABS,ioos:station:wmo:42043:1,2006-07-11T07:30:00Z,28.9818,-94.9186,4.0,6.711929678,171.6045361,8.4,'11111222,11111222,11111222' 
TABS,ioos:station:wmo:42043:1,2006-07-11T08:00:00Z,28.9818,-94.9186,4.0,7.497899706,172.8752108,9.39,'11111222,11111222,11111222' 
TABS,ioos:station:wmo:42043:1,2006-07-11T08:30:00Z,28.9818,-94.9186,4.0,7.016673001,172.7131588,8.58,'11111222,11111222,11111222' 
TABS,ioos:station:wmo:42043:1,2006-07-11T09:00:00Z,28.9818,-94.9186,4.0,7.642002355,173.3122897,9.57,'11111222,11111222,11111222' 
TABS,ioos:station:wmo:42043:1,2006-07-11T09:30:00Z,28.9818,-94.9186,4.0,7.894308076,169.4162477,9.36,'11111222,11111222,11111222' 
TABS,ioos:station:wmo:42043:1,2006-07-11T10:00:00Z,28.9818,-94.9186,4.0,7.189019405,177.129852,8.65,'11111222,11111222,11111222' 
TABS,ioos:station:wmo:42043:1,2006-07-11T10:30:00Z,28.9818,-94.9186,4.0,6.71670306,177.440262,8.19,'11111222,11111222,11111222' 
TABS,ioos:station:wmo:42043:1,2006-07-11T11:00:00Z,28.9818,-94.9186,4.0,6.703610967,178.1195366,8.15,'11111222,11111222,11111222' 
TABS,ioos:station:wmo:42043:1,2006-07-11T11:30:00Z,28.9818,-94.9186,4.0,6.034384807,182.1845576,7.52,'11111222,11111222,11111222' 
TABS,ioos:station:wmo:42043:1,2006-07-11T12:00:00Z,28.9818,-94.9186,4.0,5.677076713,184.4453489,7.24,'11111222,11111222,11111222' 
TABS,ioos:station:wmo:42043:1,2006-07-11T12:30:00Z,28.9818,-94.9186,4.0,5.861672116,178.6316329,7.2,'11111222,11111222,11111222' 
TABS,ioos:station:wmo:42043:1,2006-07-11T13:00:00Z,28.9818,-94.9186,4.0,5.450944872,186.1082345,6.97,'11111222,11111222,11111222' 
TABS,ioos:station:wmo:42043:1,2006-07-11T13:30:00Z,28.9818,-94.9186,4.0,5.690430564,179.2953787,7.3,'11111222,11111222,11111222' 
TABS,ioos:station:wmo:42043:1,2006-07-11T14:00:00Z,28.9818,-94.9186,4.0,6.007869839,169.6442084,7.52,'11111222,11111222,11111222' 
TABS,ioos:station:wmo:42043:1,2006-07-11T14:30:00Z,28.9818,-94.9186,4.0,5.343332294,169.8680226,7.03,'11111222,11111222,11111222' 
TABS,ioos:station:wmo:42043:1,2006-07-11T15:00:00Z,28.9818,-94.9186,4.0,5.895905359,172.1037612,7.59,'11111222,11111222,11111222' 
TABS,ioos:station:wmo:42043:1,2006-07-11T15:30:00Z,28.9818,-94.9186,4.0,6.028639979,170.1629238,7.22,'11111222,11111222,11111222' 
TABS,ioos:station:wmo:42043:1,2006-07-11T16:00:00Z,28.9818,-94.9186,4.0,5.363021536,178.0768258,6.26,'11111222,11111222,11111222' 